Regional Weather Roundup
Issued by NWS

Home | Current Version | Previous Version | Text Only | Print | Product List | Glossary On
Versions: 1 2 3 4 5 6 7 8 9 10 11 12 13 14 15 16 17 18 19 20 21 22 23 24 25 26 27 28 29 30 31 32 33 34 35 36 37 38 39 40 41 42 43 44 45 46 47 48 49 50
712
ASUS44 KFWD 261815
RWRTX
NORTH TEXAS HOURLY WEATHER ROUNDUP
NATIONAL WEATHER SERVICE FORT WORTH TX
100 PM CDT TUE JUL 26 2016

NOTE: "FAIR" INDICATES FEW OR NO CLOUDS BELOW 12,000 FEET WITH NO
SIGNIFICANT WEATHER AND/OR OBSTRUCTIONS TO VISIBILITY.

TXZ118-119-261900-
DALLAS/FORT WORTH METROPLEX

CITY           SKY/WX    TMP DP  RH WIND       PRES   REMARKS
DFW AIRPORT    MOSUNNY   94  70  45 NE7       29.96F HX 100
6HR MIN TEMP:  78; 6HR MAX TEMP:  94;

DALLAS LOVE    MOSUNNY   92  72  51 VRB5      29.95F HX  99
6HR MIN TEMP:  79; 6HR MAX TEMP:  93;

FTW MEACHAM    MOSUNNY   94  69  44 CALM      29.96F HX  99
6HR MIN TEMP:  79; 6HR MAX TEMP:  96;

DAL-EXECUTIVE  SUNNY     93  70  46 E8        29.96F HX  99
6HR MIN TEMP:  74; 6HR MAX TEMP:  93;

FTW-ALLIANCE   MOSUNNY   93  71  48 E7        29.96F HX 100
6HR MIN TEMP:  72; 6HR MAX TEMP:  93;

FTW-NAS-JRB    MOSUNNY   92  68  45 CALM      29.97F HX  96
6HR MIN TEMP:  79; 6HR MAX TEMP:  95;

FTW-SPINKS     MOSUNNY   91  68  46 E3        29.98F HX  95
ARLINGTON      MOSUNNY   93  71  48 VRB3      29.96F HX 100
6HR MIN TEMP:  74; 6HR MAX TEMP:  93;

GRAND PRAIRIE  SUNNY     91  68  46 SE7       29.98F HX  95
ADDISON        MOSUNNY   91  73  55 SE6       29.98F HX 100
MESQUITE       SUNNY     90  73  58 E6        29.96F HX  98
LANCASTER      MOSUNNY   92  71  50 E7        29.97F HX  99
6HR MIN TEMP:  74; 6HR MAX TEMP:  92;

$$

TXZ091>094-102>105-117-120-121-131>134-261900-
NORTH CENTRAL TEXAS

CITY           SKY/WX    TMP DP  RH WIND       PRES   REMARKS
SHRMAN/DENISON MOSUNNY   94  73  51 N3        29.98F HX 103
6HR MIN TEMP:  76; 6HR MAX TEMP:  94;

GAINESVILLE    PTSUNNY   89  72  57 N5        29.99F HX  95
6HR MIN TEMP:  73; 6HR MAX TEMP:  89;

BOWIE          MOSUNNY   91  70  50 S5        30.00F HX  96
6HR MIN TEMP:  74; 6HR MAX TEMP:  92;

BRIDGEPORT     SUNNY     90  72  54 E3        30.00F HX  97
6HR MIN TEMP:  72; 6HR MAX TEMP:  91;

DECATUR        MOSUNNY   90  68  48 NE6       30.00S HX  93
6HR MIN TEMP:  72; 6HR MAX TEMP:  91;

DENTON         SUNNY     91  72  53 VRB6      29.96F HX  98
6HR MIN TEMP:  73; 6HR MAX TEMP:  92;

MCKINNEY       SUNNY     92  72  51 E3        29.96F HX  99
6HR MIN TEMP:  74; 6HR MAX TEMP:  93;

GREENVILLE     MOSUNNY   90  68  48 CALM      29.96F HX  93
ROCKWALL       MOSUNNY   91  73  55 E8        29.95F HAZE    HX 100
6HR MIN TEMP:  75; 6HR MAX TEMP:  91;

TERRELL        PTSUNNY   92  70  48 CALM      29.96F HX  97
6HR MIN TEMP:  74; 6HR MAX TEMP:  92;

WAXAHACHIE     MOSUNNY   91  72  52 E5        29.98S HX  98
6HR MIN TEMP:  71; 6HR MAX TEMP:  91;

CLEBURNE       MOSUNNY   91  72  52 NE6       29.99F HX  98
GRANBURY       MOSUNNY   94  67  41 SE6       29.98F HX  97
6HR MIN TEMP:  73; 6HR MAX TEMP:  94;

$$

TXZ083>090-098>101-113>116-127>130-139>142-154-155-261900-
WESTERN NORTH TEXAS

CITY           SKY/WX    TMP DP  RH WIND       PRES   REMARKS
WICHITA FALLS  CLOUDY    90  70  51 E5        29.99F HX  95
6HR MIN TEMP:  75; 6HR MAX TEMP:  90;

WF-KICKAPOO    CLOUDY    91  67  44 E3        30.00S HX  94
6HR MIN TEMP:  76; 6HR MAX TEMP:  92;

VERNON         SUNNY     91  64  39 SE5       30.01F HX  92
6HR MIN TEMP:  77; 6HR MAX TEMP: 100;

ABILENE        SUNNY     92  65  40 E7        30.02S HX  94
6HR MIN TEMP:  71; 6HR MAX TEMP:  92;

ABILENE-DYESS  SUNNY     92  66  41 E5        30.00F HX  95
CISCO          MOSUNNY   90  68  48 E6G18     30.02F HX  93
BRECKENRIDGE   SUNNY     93  65  38 CALM      29.98F HX  95
6HR MIN TEMP:  73; 6HR MAX TEMP:  93;

GRAHAM         SUNNY     92  69  47 NE8       29.97F HX  96
6HR MIN TEMP:  72; 6HR MAX TEMP:  94;

MINERAL WELLS  SUNNY     92  68  45 NE5       29.97F HX  96
6HR MIN TEMP:  73; 6HR MAX TEMP:  93;

STEPHENVILLE   SUNNY     91  65  42 E7        30.02S HX  93
6HR MIN TEMP:  72; 6HR MAX TEMP:  91;

COMANCHE       MOSUNNY   88  68  51 NE8       30.00F HX  92
6HR MIN TEMP:  71; 6HR MAX TEMP:  92;

BROWNWOOD      PTSUNNY   91  66  43 NE3       30.00S HX  94
COLEMAN        SUNNY     91  65  41 NE8       30.01S HX  93
6HR MIN TEMP:  70; 6HR MAX TEMP:  91;

$$

TXZ143>147-156>162-174-175-261900-
CENTRAL TEXAS

CITY           SKY/WX    TMP DP  RH WIND       PRES   REMARKS
WACO           PTSUNNY   89  70  53 VRB6      29.97S HX  94
6HR MIN TEMP:  74; 6HR MAX TEMP:  91;

WACO-TSTC      PTSUNNY   90  72  55 CALM      29.96F HX  96
WACO-MCGREGOR  MOSUNNY   90  72  55 VRB6      29.97F HX  97
6HR MIN TEMP:  75; 6HR MAX TEMP:  90;

HILLSBORO      PTSUNNY   90  71  54 E8        29.97F HX  96
6HR MIN TEMP:  71; 6HR MAX TEMP:  90;

CORSICANA      MOSUNNY   92  72  51 SE3       29.97F HX  99
6HR MIN TEMP:  75; 6HR MAX TEMP:  92;

MEXIA          PTSUNNY   89  72  57 E8        29.96F HX  96
6HR MIN TEMP:  72; 6HR MAX TEMP:  89;

HEARNE         MOSUNNY   87  73  61 CALM      29.96F HX  95
6HR MIN TEMP:  73; 6HR MAX TEMP:  90;

CAMERON        PTSUNNY   91  73  56 E5        29.95F HX  99
6HR MIN TEMP:  74; 6HR MAX TEMP:  91;

TEMPLE         MOSUNNY   86  72  62 NE5       29.97F HX  92
6HR MIN TEMP:  74; 6HR MAX TEMP:  90;

KILLEEN        MOSUNNY   87  71  59 E8        29.97F HX  92
6HR MIN TEMP:  74; 6HR MAX TEMP:  87;

KILLEEN-SKYLRK MOSUNNY   88  73  61 NE5       29.98F HX  95
6HR MIN TEMP:  75; 6HR MAX TEMP:  88;

FORT HOOD      MOSUNNY   87  70  58 E7        29.96F HX  91
6HR MIN TEMP:  73; 6HR MAX TEMP:  88;

GATESVILLE     MOSUNNY   91  72  52 SE5       29.99F HX  98
HAMILTON       MOSUNNY   91  68  46 E9        30.00F HX  95
6HR MIN TEMP:  72; 6HR MAX TEMP:  92;

LAMPASAS       MOSUNNY   91  76  61 E9        29.98F HX 102
6HR MIN TEMP:  76; 6HR MAX TEMP:  91;

$$

TXZ095>097-106>112-122>126-135>138-148>153-164>167-261900-
EAST TEXAS

CITY           SKY/WX    TMP DP  RH WIND       PRES   REMARKS
PARIS          MOSUNNY   90  68  48 SE8       29.96F HX  93
6HR MIN TEMP:  75; 6HR MAX TEMP:  91;

SULPHUR SPRNGS MOSUNNY   94  70  46 CALM      29.97F HX 100
6HR MIN TEMP:  75; 6HR MAX TEMP:  94;

MOUNT PLEASANT MOSUNNY   94  68  42 E5        29.95F HX  99
6HR MIN TEMP:  73; 6HR MAX TEMP:  95;

GILMER         PTSUNNY   89  72  58 E3        29.95F THUNDER HX  96
6HR MIN TEMP:  74; 6HR MAX TEMP:  91;

MINEOLA        SUNNY     91  73  55 CALM      29.97F HX 100
TYLER          MOSUNNY   91  72  53 E7        29.96S HX  98
6HR MIN TEMP:  76; 6HR MAX TEMP:  92;

LONGVIEW       MOSUNNY   91  73  55 E12       29.95S HX  99
6HR MIN TEMP:  73; 6HR MAX TEMP:  91;

MARSHALL       PTSUNNY   90  73  58 E5        29.98S HX  98
6HR MIN TEMP:  73; 6HR MAX TEMP:  90;

ATHENS         PTSUNNY   88  72  58 NE3       29.95F HX  94
PALESTINE      MOSUNNY   89  74  61 E7        29.97F HX  97
JACKSONVILLE   PTSUNNY   89  74  60 E5        29.99F HX  97
HENDERSON      MOSUNNY   89  72  56 E6        29.96F HX  96
6HR MIN TEMP:  72; 6HR MAX TEMP:  90;

CENTER         MOCLDY    89  75  62 NE5       29.97S HX  99
6HR MIN TEMP:  74; 6HR MAX TEMP:  89;

NACOGDOCHES    PTSUNNY  N/A N/A N/A NE3       29.93F
LUFKIN         PTSUNNY   87  73  62 E5        29.95S HX  94
6HR MIN TEMP:  73; 6HR MAX TEMP:  88;

$$

SUPPLEMENTAL OBSERVATIONS (CENTRAL)

CITY           SKY/WX    TMP DP  RH WIND       PRES   REMARKS
DENISON DAM      N/A     90  73  58 NW1         N/A  HX  98
PAT MAYSE LAKE   N/A     91  70  49 E6          N/A  HX  97
GREENVILLE       N/A     91  70  49 N8G17       N/A  HX  97
CEDAR HILL       N/A     95  72  46 E2          N/A  HX 103
ATHENS           N/A     91  73  55 SE6         N/A  HX 100
LAKE LIMESTONE   N/A     90  72  55 N6          N/A  HX  96
MCGREGOR         N/A     90  73  58 E6          N/A  HX  98
TC1F1C2F2C3F3C4F4C5F5C6F6C7F7C8F8C9!



USA.gov is the U.S. government's official web portal to all federal, state and local government web resources and services.